Regional Weather Roundup
Issued by NWS Northern Indiana

Home | Current Version | Previous Version | Graphics & Text | Print | Product List | Glossary On
Versions: 1 2 3 4 5 6 7 8 9 10 11 12 13 14 15 16 17 18 19 20 21 22 23 24 25 26 27 28 29 30 31 32 33 34 35 36 37 38 39 40 41 42 43 44 45 46 47 48 49 50
000
ASUS43 KIWX 091910
RWRIWX

KIWX WEATHER ROUNDUP
NATIONAL WEATHER SERVICE NORTHERN INDIANA
200 PM EST FRI DEC 09 2016

NOTE: "FAIR" INDICATES FEW OR NO CLOUDS BELOW 12,000 FEET WITH NO
SIGNIFICANT WEATHER AND/OR OBSTRUCTIONS TO VISIBILITY.

* THESE STATIONS ARE NOT UNDER NWS QUALITY CONTROL. THEY ALSO MAY NOT
  REPORT WEATHER SUCH AS PRECIPITATION OR FOG.

INZ001>027-092000-
NORTHERN INDIANA

CITY           SKY/WX    TMP DP  RH WIND       PRES   REMARKS
GARY*          CLOUDY    28  14  54 W12       30.51F WCI  18
VALPARAISO     CLOUDY    27  13  55 W9        30.49F WCI  18
MICHIGAN CITY* CLOUDY    28  18  64 W9        30.48F WCI  20
LAPORTE*       FLURRIES  25  17  72 W12       30.48S WCI  14
KNOX*          PTSUNNY   28  -6  22 W9G16     30.48F WCI  20
SOUTH BEND     LGT SNOW  24  21  88 W12       30.46F FOG     WCI  13
ELKHART*       FLURRIES  27  21  80 W13       30.44F WCI  16
GOSHEN         MOSUNNY   28  18  66 W17       30.43F WCI  16
MONTICELLO*    CLOUDY    27  11  52 W9        30.50F WCI  17
LOGANSPORT*    CLOUDY    28  16  59 W10       30.50S WCI  19
ROCHESTER*     MOSUNNY   30  18  59 W10       30.47S WCI  21
WARSAW*        MOSUNNY   30  14  51 W14       30.44F WCI  20
ANGOLA*        MOSUNNY   28  19  69 W12       30.39S WCI  18
FORT WAYNE     CLOUDY    29  18  63 W16       30.45F WCI  17
HUNTINGTON*    PTSUNNY   27  17  63 W8        30.45S WCI  19
PERU/GRISSOM   FLURRIES  28  16  59 W14       30.46S WCI  17
MARION*        CLOUDY    26  19  77 W13       30.48F WCI  14

$$
INZ028>050-092000-
CENTRAL INDIANA

CITY           SKY/WX    TMP DP  RH WIND       PRES   REMARKS
LAFAYETTE      CLOUDY    26  17  68 W8        30.51F WCI  18
KOKOMO*        CLOUDY    27  17  66 W15       30.49F WCI  15
MUNCIE*        CLOUDY    26  18  71 W10       30.48F WCI  16
INDIANAPOLIS   PTSUNNY   27  14  58 NW10      30.50F WCI  17

$$
MIZ043>046-050>051-056>058-064>065-071>073-077>080-092000-
SOUTHWEST LOWER MICHIGAN

CITY           SKY/WX    TMP DP  RH WIND       PRES   REMARKS
BATTLE CREEK   CLOUDY    28  21  75 NW12      30.39F WCI  18
BENTON HARBOR  CLOUDY    28  16  60 W14       30.45F WCI  17
COLDWATER*     CLOUDY    29  23  79 W15       30.39S WCI  17
HILLSDALE*     LGT SNOW  28  23  80 W13       30.35F WCI  18
HOLLAND        CLOUDY    28  16  60 NW12      30.42F WCI  18
GRAND RAPIDS   LGT SNOW  26  20  77 NW12      30.39F WCI  16
KALAMAZOO      LGT SNOW  27  20  75 W9        30.41S WCI  18
STURGIS*       FLURRIES  28  21  74 NW13G22   30.40S WCI  18
THREE RIVERS*  CLOUDY    28  22  78 W17G23    30.42F WCI  15

$$
OHZ001>008-015>018-024>025-092000-
NORTHWEST OHIO

CITY           SKY/WX    TMP DP  RH WIND       PRES   REMARKS
WAUSEON*       CLOUDY    28  23  80 W13       30.39F WCI  18
DEFIANCE       PTSUNNY   30  20  66 W9        30.43F WCI  22
FINDLAY        LGT SNOW  28  21  75 W17       30.42S WCI  16
TOLEDO EXPRESS CLOUDY    29  25  85 W8        30.40F WCI  21
TOLEDO METCALF LGT SNOW  30  26  85 W13       30.40F FOG     WCI  20
LIMA           LGT SNOW  25  22  88 W13       30.43F FOG     WCI  14

$$
AND FOR LAKE MICHIGAN COASTAL AND OPEN LAKE BUOY OBSERVATIONS

STATION/POSITION TEMP    WIND        PRES    VSBY  WAVE
                 AIR SEA DIR/SP/G                  HT/PER
                 (F)     (DEG/KT/KT) (MB)    (MI)  (FT/S)
CALUMET HARBOR    26     280/  5/  9 1032.0F
BURNS HARBOR      27     280/ 12/ 17 1032.8F
SAINT JOSEPH      29     290/ 13/ 20 1031.2

$$
&&




USA.gov is the U.S. government's official web portal to all federal, state and local government web resources and services.